Regional Weather Roundup
Issued by NWS Wilmington, NC

Current Version | Previous Version | Text Only | Print | Product List | Glossary On
Versions: 1 2 3 4 5 6 7 8 9 10 11 12 13 14 15 16 17 18 19 20 21 22 23 24 25 26 27 28 29 30 31 32 33 34 35 36 37 38 39 40 41 42 43 44 45 46 47 48 49 50
000
ASUS42 KILM 241210
RWRILM
RWRILM
REGIONAL HOURLY WEATHER ROUNDUP
NATIONAL WEATHER SERVICE WILMINGTON NC
700 AM EST MON NOV 24 2014

NOTE: "FAIR" INDICATES FEW OR NO CLOUDS BELOW 12,000 FEET WITH NO
SIGNIFICANT WEATHER AND/OR OBSTRUCTIONS TO VISIBILITY.

...............WFO WILMINGTON COUNTY WARNING AREA...............

......COASTAL NC AND SC COUNTIES......

CITY           SKY/WX    TMP DP  RH WIND       PRES   REMARKS
WILMINGTON     CLOUDY    66  65  96 S8        29.86R
SOUTHPORT      CLOUDY    65  65  97 SW6       29.87R FOG
N MYRTLE BEACH FOG       64  63  96 SW13      29.86R VSB 3/4
MYRTLE BEACH   CLOUDY    66  64  94 S10       29.86R FOG

......INLAND NC AND SC COUNTIES.......

CITY           SKY/WX    TMP DP  RH WIND       PRES   REMARKS
LUMBERTON      CLOUDY    66  64  93 S5        29.83R
ELIZABETHTOWN  CLOUDY    66  66 100 S3        29.85R
WHITEVILLE     DRIZZLE   66  65  96 S6        29.85R
FLORENCE       CLOUDY    67  65  93 S9        29.83R
DARLINGTON     CLOUDY    61  57  88 CALM      29.84R VSB 1/4

....................REST OF NORTH CAROLINA......................

.........EASTERN NC.........

CITY           SKY/WX    TMP DP  RH WIND       PRES   REMARKS
CAPE HATTERAS  RAIN      69  68  96 SW10      29.89R FOG
JACKSONVILLE   CLOUDY    66  63  88 S7        29.86R
MOREHEAD CITY  CLOUDY    66  65  96 SW10      29.89R
KENANSVILLE    CLOUDY    65  64  96 CALM      29.85R
NEW BERN       LGT RAIN  69  66  90 S7        29.87R
ELIZABETH CITY CLEAR     68  64  87 S12G21    29.82S

.........CENTRAL NC.........

CITY           SKY/WX    TMP DP  RH WIND       PRES   REMARKS
RALEIGH DURHAM PTCLDY    61  57  87 SW10      29.80R
ROCKY MOUNT    CLEAR     63  60  90 S7        29.81R
ROANOKE RAPIDS NOT AVBL
FAYETTEVILLE   FOG       60  60 100 S3        29.83R VSB 1/4
HOFFMAN        MOCLDY    57  57 100 SW3       29.83S FOG

.........WESTERN NC.........

CITY           SKY/WX    TMP DP  RH WIND       PRES   REMARKS
CHARLOTTE      MOCLDY    60  55  83 S12       29.78R
GREENSBORO     PTCLDY    59  54  83 SW15      29.75R
HICKORY        NOT AVBL
BOONE          NOT AVBL
ASHEVILLE      NOT AVBL

.....................REST OF SOUTH CAROLINA.....................

.........EASTERN SC.........

CITY           SKY/WX    TMP DP  RH WIND       PRES   REMARKS
CHARLESTON     CLOUDY    69  67  93 SW9       29.87R
BEAUFORT MCAS  CLOUDY    69  67  93 S8        29.86R FOG
HILTON HEAD    CLOUDY    66  66 100 S9G16     29.88  FOG

.........CENTRAL SC.........

CITY           SKY/WX    TMP DP  RH WIND       PRES   REMARKS
COLUMBIA       CLOUDY    67  62  84 SW7       29.82R
ORANGEBURG     CLOUDY    66  64  93 S6        29.83S
SUMTER SHAW    CLOUDY    66  65  97 S8        29.83R

.........WESTERN SC.........

CITY           SKY/WX    TMP DP  RH WIND       PRES   REMARKS
GREENVILLE     NOT AVBL
ROCK HILL      CLOUDY    60  57  89 S10       29.79R
ANDERSON       PTCLDY    57  56  96 S7        29.79R
CLEMSON        NOT AVBL
GREENWOOD      PTCLDY    59  57  93 SW8       29.81R


...................COASTAL AND OFFSHORE REPORTS..................

................LOCAL PIERS AND NC RESERVE................


STATION/POSITION TIME  SKY/WX   TEMP    WIND        PRES    VSBY
                                AIR SEA DIR/SP/G
                 (UTC)          (F)     (DEG/KT/KT) (MB)    (MI)
JOHNY MRCER PIER 1200            64 61  210/  9/ 11 1010.5R
NC RESRV MASNBRO 1100            66     220/  4     1011.0S
OCEAN CREST PIER 1200            63 59  190/  8/ 10 1010.3R
SPRINGMAID  PIER 1200            60 56  210/  8/  9 1011.1R


................COASTAL AND OFFSHORE BUOYS................


STATION/POSITION TIME  SKY/WX   TEMP    WIND        PRES    VSBY
                                AIR SEA DIR/SP/G
                 (UTC)          (F)     (DEG/KT/KT) (MB)    (MI)
DIMNDSHOAL 41025 1200            74     190/ 17/ 23 1011.9R
WVE H/P(F/S)= 10/ 9 WND WVE H/P(F/S)=  8/ 7 SWL H/P/D(F/S/D)=  7/160/ 9

CAPE LOOKOUT     1100            64     180/ 10/ 11 1011.3R
ONSLOW BAY 41036 1100            71 70  210/ 10/ 14 1011.8R
5 WRITEBCH 41038 1100            59 60  220/ 10/ 12 1010.4R
MASONBORO  41110 1200               60                N/A
WVE H/P(F/S)=  7/10 WND WVE H/P(F/S)=  7/10 SWL H/P/D(F/S/D)=  2/150/11

WILM HARBR 41108 1200               61                N/A
WVE H/P(F/S)=  7/10 WND WVE H/P(F/S)=  7/10 SWL H/P/D(F/S/D)=  2/150/11

27WRITEBCH 41037 1100            66 66  220/ 10/ 12 1011.7R
FRYING PAN 41013 1200            72 67  220/ 16/ 17 1012.2R
WVE H/P(F/S)=  9/10 WND WVE H/P(F/S)=  5/ 6 SWL H/P/D(F/S/D)=  7/140/10

SUNST NRSH 41024 1100            60     220/  6/  8 1010.4R
CAPRS NRSH 41029 1100            64     200/ 14/ 17   N/A
EDISTO     41004 1200            76 75  210/ 23/ 29 1010.8R
WVE H/P(F/S)= 10/10 WND WVE H/P(F/S)=  7/ 7 SWL H/P/D(F/S/D)=  8/10



..........OFFSHORE BUOYS BEYOND 100 NM OFFSHORE...........
.....IN A TRIANGLE---HAT TO BERMUDA TO BAHAMAS TO HAT.....


STATION/POSITION TIME  SKY/WX   TEMP    WIND        PRES    VSBY
                                AIR SEA DIR/SP/G
                 (UTC)          (F)     (DEG/KT/KT) (MB)    (MI)
150E HAT   41001 NOT AVBL
W BERMUDA  41048 1113            74 74  150/ 21/ 25 1021.8R
WVE H/P(F/S)=  7/ 6 WND WVE H/P(F/S)=  7/ 6 SWL H/P/D(F/S/D)=  2/100/ 9

ATLANTIC S 41049 1120            79 79   90/ 17/ 21 1024.2R
WVE H/P(F/S)=  7/ 9 WND WVE H/P(F/S)=  5/ 7 SWL H/P/D(F/S/D)=  5/100/ 9

E BAHAMAS  41046 1116            81 81  110/ 17/ 23 1019.6R
WVE H/P(F/S)=  8/ 9 WND WVE H/P(F/S)=  7/ 8 SWL H/P/D(F/S/D)=  5/ 60/ 9

NE BAHAMAS 41047 1145            79 78  140/ 12/ 16 1020.5R
WVE H/P(F/S)=  9/ 9 WND WVE H/P(F/S)=  3/ 6 SWL H/P/D(F/S/D)=  8/120/ 9

120E CANVRL41010 1200            79 78  170/ 16/ 21 1015.3R
WVE H/P(F/S)=  9/10 WND WVE H/P(F/S)=  7/ 8 SWL H/P/D(F/S/D)=  7/120/10


END



USA.gov is the U.S. government's official web portal to all federal, state and local government web resources and services.